Location: Moscow
(55.7500°N, 37.5830°E)
Time: 05:16:03
(UTC+03:00)

Vanguard 1 - Pass Details

Date: 16 August 2022
Orbit: 649 x 3832 km, 34.2° (Epoch: 30 September)

Event Time Altitude Azimuth Distance (km) Brightness Sun altitude
Exits shadow 04:12:21 - 219° (SW) 5,136 13.1 -6.9°
Reaches altitude 10° 04:13:48 10° 215° (SW) 4,919 13.0 -6.7°
Maximum altitude 04:26:33 33° 159° (SSE) 4,445 13.3 -5.3°
Drops below altitude 10° 04:44:26 10° 107° (ESE) 6,896 15.1 -3.1°
Sets 04:50:50 0° 99° (E) 7,974 15.6 -2.4°
